Location: Namasale
(1.5000°N, 32.6167°E)
Time: 05:11:23
(UTC+00:00)

Hubble Space Telescope - Pass Details

Date: 10 December 2021
Orbit: 534 x 538 km, 28.5° (Epoch: 19 January)

Event Time Altitude Azimuth Distance (km) Brightness Sun altitude
Rises 16:01:10 0° 255° (WSW) 2,673 6.8 -4.9°
Reaches altitude 10° 16:03:33 10° 264° (W) 1,781 5.0 -5.4°
Maximum altitude 16:07:21 35° 330° (NNW) 866 1.9 -6.3°
Drops below altitude 10° 16:11:08 10° 38° (NE) 1,776 2.9 -7.2°
Enters shadow 16:11:53 - 41° (NE) 2,050 3.2 -7.3°
